Terminal Aerodrome Forecast
Issued by NWS Honolulu, HI

Home | Current Version | Previous Version | Text Only | Print | Product List | Glossary On
Versions: 1 2 3 4 5 6 7 8 9 10 11 12 13 14 15 16 17 18 19 20 21 22 23 24 25 26 27 28 29 30 31 32 33 34 35 36 37 38 39
000
FTPA31 PHFO 231500 AAA
TAFHNL
TAF AMD
PHNL 231508Z 2315/2418 VRB03KT P6SM VCSH FEW025 SCT035 BKN050
     FM232000 07011G18KT P6SM FEW030 SCT050
     FM240500 06009KT P6SM SCT025 SCT040=

USA.gov is the U.S. government's official web portal to all federal, state and local government web resources and services.